[Date Prev][Date Next][Thread Prev][Thread Next] - [Date Index][Thread Index][Author Index]

2 Line ISS Keps 9-22



ISS
1 25544U 98067A   06265.50238751  .00016984  00000-0  11033-3 0  7177
2 25544 051.6354 046.1584 0012058 014.4087 030.3185 15.76025805448515
----
Sent via sarex@amsat.org. Opinions expressed are those of the author.
Not an AMSAT member? Join now to support the amateur satellite program!
Subscription settings: http://amsat.org/mailman/listinfo/sarex



AMSAT Top AMSAT Home